Temperature
7 8 8 7 7 7 8 9 9 11 11 12 12 11 10 9 8 8 7 7 6 6 6 6 6 7 7 7 7 7 7 6 6 6 6 6 6 5 5 5 5 4 4 4
6 7 7 7 7 8 8 8 9 9 10 11 10 10 9 9 8 7 7 6 6 6 6 6 6 6 6 6 6 6 6 6 6 6 5 5 5 5 4 4 4 4 4 3
6 6 6 6 7 8 8 8 8 9 10 10 9 9 8 8 7 7 6 6 5 5 5 5 5 5 5 5 5 5 5 5 5 5 5 4 4 4 4 3 3 3 3 3
5 5 5 8 7 8 8 8 8 8 9 8 8 7 7 7 7 6 6 5 5 5 5 5 5 5 5 5 5 5 4 4 4 4 4 4 4 3 3 3 3 3 2 2
5 5 6 7 6 6 6 7 7 7 8 7 6 6 6 5 5 5 5 5 5 5 5 4 4 4 4 4 4 4 4 3 3 3 3 3 3 3 2 2 2 2 2 2
4 5 6 7 6 5 6 6 6 7 6 6 6 7 7 4 4 4 4 4 4 4 4 4 4 4 4 4 3 3 3 3 3 3 2 2 2 2 2 2 1 1 1 1
4 4 6 5 4 5 6 6 5 5 5 5 5 6 4 4 3 4 4 4 4 4 4 4 4 3 3 3 3 3 3 2 2 2 2 2 1 1 1 1 1 1 0 0
4 4 4 4 4 5 5 4 4 4 4 4 3 3 3 3 3 3 3 3 3 3 3 3 3 3 3 2 2 2 2 2 2 1 1 1 1 0 0 0 -0 -0 -0 -1
4 4 3 3 3 3 3 3 3 3 3 3 2 2 2 2 2 2 2 2 2 2 2 2 2 2 2 2 1 1 1 1 1 1 0 0 -0 -0 -0 -1 -1 -1 -1 -2
3 3 3 2 2 2 2 2 2 2 2 2 2 2 1 1 2 2 2 2 2 2 2 1 1 1 1 1 1 0 0 0 0 -0 -0 -1 -1 -1 -1 -1 -2 -2 -2 -3
2 3 2 2 2 2 2 2 1 1 1 1 1 1 1 1 1 1 1 1 1 1 1 1 0 0 0 -0 -0 -0 -0 -0 -1 -1 -1 -1 -1 -2 -2 -2 -2 -3 -3 -3
3 3 2 2 1 1 1 1 1 0 0 1 1 1 1 0 0 0 0 0 0 0 0 0 -0 -0 -0 -1 -1 -1 -1 -1 -1 -2 -2 -2 -2 -2 -2 -2 -3 -3 -3 -3
1 0 -0 -0 0 0 0 0 0 0 0 0 0 0 0 -0 -0 -0 -0 -0 -0 -0 -0 -0 -0 -1 -1 -1 -1 -1 -2 -2 -2 -2 -2 -2 -3 -3 -3 -3 -3 -3 -3 -4
-1 -1 -1 -1 -1 -1 -1 -1 -0 -0 -1 -1 -1 -1 -1 -1 -1 -1 -1 -1 -1 -1 -1 -1 -1 -1 -1 -2 -2 -2 -2 -2 -2 -3 -3 -3 -3 -3 -4 -4 -4 -4 -4 -4
-2 -2 -2 -2 -2 -1 -1 -1 -1 -1 -1 -1 -1 -2 -2 -2 -2 -2 -2 -2 -2 -2 -2 -2 -2 -2 -2 -2 -2 -2 -2 -3 -3 -3 -3 -4 -4 -4 -4 -4 -5 -5 -4 -4
-3 -2 -2 -2 -3 -2 -2 -2 -2 -2 -2 -2 -2 -2 -3 -3 -3 -3 -3 -2 -2 -2 -2 -2 -2 -2 -2 -3 -3 -3 -3 -3 -3 -4 -4 -4 -4 -5 -5 -5 -5 -5 -5 -5
-3 -3 -3 -4 -3 -3 -3 -3 -3 -3 -3 -3 -3 -3 -3 -3 -3 -3 -3 -3 -3 -3 -3 -3 -3 -3 -3 -3 -3 -3 -4 -4 -4 -4 -4 -5 -5 -5 -5 -6 -6 -6 -6 -6
-4 -4 -4 -4 -4 -4 -4 -4 -4 -4 -4 -4 -4 -4 -4 -4 -4 -4 -4 -4 -4 -4 -4 -4 -4 -4 -4 -4 -4 -4 -4 -4 -5 -5 -5 -5 -5 -6 -6 -6 -6 -6 -6 -6
-4 -4 -4 -4 -4 -4 -4 -4 -4 -4 -4 -4 -4 -4 -4 -4 -4 -4 -4 -4 -4 -4 -4 -4 -4 -4 -4 -5 -5 -5 -5 -5 -5 -5 -5 -5 -6 -6 -6 -6 -6 -6 -6 -7
-5 -5 -5 -5 -5 -5 -5 -5 -5 -5 -5 -5 -5 -5 -5 -5 -5 -5 -5 -5 -5 -5 -5 -5 -5 -5 -5 -5 -5 -5 -5 -6 -6 -6 -6 -6 -6 -6 -6 -6 -7 -7 -7 -7
-6 -5 -5 -5 -5 -5 -5 -5 -5 -5 -6 -6 -6 -6 -6 -6 -6 -6 -6 -6 -6 -5 -5 -5 -5 -5 -6 -6 -6 -6 -6 -6 -6 -6 -6 -7 -7 -7 -7 -7 -7 -7 -7 -8
-6 -6 -6 -6 -6 -6 -6 -6 -6 -6 -6 -6 -6 -6 -7 -7 -7 -6 -6 -6 -6 -6 -6 -6 -6 -6 -6 -6 -6 -6 -7 -7 -7 -7 -7 -7 -7 -7 -7 -7 -7 -8 -8 -8
-7 -7 -7 -6 -6 -6 -7 -7 -7 -7 -7 -7 -7 -7 -7 -7 -7 -7 -7 -7 -7 -7 -7 -7 -7 -7 -7 -7 -7 -7 -7 -7 -7 -8 -8 -8 -8 -8 -8 -8 -8 -8 -8 -8
-7 -7 -7 -7 -7 -7 -7 -7 -7 -7 -7 -8 -8 -8 -8 -8 -8 -8 -8 -8 -8 -7 -7 -7 -7 -7 -7 -7 -7 -8 -8 -8 -8 -8 -8 -8 -8 -8 -8 -8 -8 -8 -8 -8
-8 -8 -8 -8 -8 -8 -8 -8 -8 -8 -8 -8 -8 -8 -8 -8 -8 -8 -8 -8 -8 -8 -8 -8 -8 -8 -8 -8 -8 -8 -8 -8 -8 -8 -8 -8 -8 -8 -8 -8 -8 -8 -8 -9
-8 -8 -8 -8 -8 -8 -8 -8 -8 -8 -8 -9 -9 -9 -9 -9 -9 -9 -9 -9 -9 -9 -9 -8 -8 -8 -8 -8 -8 -9 -9 -8 -8 -8 -8 -8 -8 -8 -8 -8 -8 -9 -9 -9
-9 -9 -9 -9 -9 -9 -9 -9 -9 -9 -9 -9 -9 -9 -9 -9 -9 -9 -9 -9 -9 -9 -9 -9 -9 -9 -9 -9 -9 -9 -9 -9 -9 -9 -9 -9 -9 -9 -9 -9 -9 -9 -9 -9
Wind_Speed
7 5 7 9 13 15 17 17 13 14 15 13 9 7 6 5 4 4 4 4 4 4 4 4 5 5 5 5 5 5 5 4 4 3 2 2 2 1 1 1 2 2 3 4
6 6 7 9 13 16 19 18 18 17 17 12 8 6 5 6 5 5 5 4 4 4 4 5 5 5 5 4 4 5 5 4 3 3 2 2 1 1 1 2 2 3 4 4
4 4 4 10 12 15 14 14 15 17 15 9 8 7 6 6 6 6 5 5 4 4 4 4 4 5 5 5 5 4 4 3 3 2 2 2 1 1 2 3 3 3 4 5
3 4 8 4 2 8 12 13 13 12 10 8 7 6 6 5 6 6 4 4 4 3 3 4 4 4 4 5 4 4 3 2 2 2 2 1 2 2 2 3 3 4 4 5
4 5 7 4 2 3 7 8 8 9 7 4 2 2 3 2 3 4 3 3 3 3 4 4 4 4 5 5 4 4 3 2 1 2 2 2 2 3 3 3 3 4 5 5
5 5 6 2 2 2 4 6 2 4 5 3 2 4 3 1 1 1 1 1 2 3 4 4 4 5 5 4 3 3 2 1 1 1 2 2 2 2 3 3 3 4 5 5
7 6 5 3 3 2 5 1 1 1 1 2 3 3 1 1 1 1 1 2 3 3 3 3 4 5 4 4 3 2 2 1 1 1 1 2 2 2 2 3 3 4 5 5
5 5 4 2 1 2 2 4 3 2 2 1 1 0 0 1 0 1 2 2 3 3 3 3 4 4 4 3 2 2 2 1 1 1 1 1 2 2 3 3 4 4 5 5
3 3 1 0 1 2 3 3 3 3 3 1 1 1 0 0 0 1 2 2 2 3 4 3 3 3 3 2 2 2 2 1 0 0 1 1 2 2 2 3 3 4 4 5
2 3 3 2 3 4 5 4 4 3 2 1 1 1 1 0 0 1 1 2 3 4 4 3 2 2 2 2 2 2 1 1 0 1 1 2 2 2 3 3 3 4 4 5
4 5 3 4 4 4 4 4 4 4 3 1 1 1 1 1 1 1 1 2 2 3 3 3 2 2 2 2 2 1 1 0 0 1 2 2 2 3 3 4 4 5 5 5
4 3 3 4 4 4 3 4 4 3 3 2 0 1 1 1 1 1 2 2 2 3 3 2 2 2 1 1 1 1 0 1 1 1 2 2 3 3 4 5 7 8 8 7
4 4 4 4 4 4 3 3 3 3 2 1 1 1 1 1 1 2 1 2 2 2 2 2 2 1 1 1 0 1 1 1 1 2 2 2 3 3 4 5 5 6 7 8
3 3 3 3 3 4 3 3 3 3 3 2 2 2 2 2 2 2 1 1 1 2 2 1 1 1 1 0 1 1 1 2 2 2 2 3 3 3 4 4 5 5 6 8
3 3 2 2 3 3 3 3 4 4 4 4 3 2 2 2 1 1 0 1 1 2 1 1 1 0 1 0 1 1 1 1 2 2 2 3 3 3 3 4 5 5 5 6
3 2 1 2 2 2 3 3 3 3 3 3 3 2 2 1 1 1 1 1 2 2 1 1 0 1 1 1 1 1 1 2 2 2 2 2 3 3 3 4 5 5 5 5
2 2 2 2 2 2 3 2 2 2 2 2 2 2 2 2 2 2 2 2 2 2 1 0 0 1 1 1 1 1 1 2 2 2 2 2 3 3 4 4 4 5 5 6
2 2 1 1 1 1 2 3 3 2 2 2 2 2 2 2 2 1 1 2 2 2 2 1 1 1 1 1 1 1 1 2 2 2 2 3 3 3 4 4 5 5 5 6
3 3 3 2 2 2 2 2 2 3 2 2 2 2 2 2 2 2 2 1 1 1 2 2 2 1 1 2 2 1 1 2 2 2 2 3 4 3 4 4 5 5 5 5
4 4 4 4 4 3 2 2 2 3 3 2 3 3 3 3 2 2 2 1 1 1 2 2 2 1 2 2 2 1 2 2 2 2 3 3 3 4 4 4 5 5 5 5
3 4 4 4 4 4 3 2 2 3 3 3 3 2 2 2 2 2 1 2 2 2 2 2 1 1 2 2 2 2 2 2 2 2 3 3 3 4 4 4 5 5 5 5
3 3 3 3 3 3 3 3 3 2 3 3 3 2 2 2 2 2 2 2 3 4 3 2 2 2 2 2 1 2 2 2 2 2 3 3 3 4 4 5 5 5 5 5
2 2 2 2 2 2 3 3 3 3 3 3 2 2 2 2 2 2 2 2 3 4 4 2 2 3 3 2 1 2 2 2 2 3 3 3 3 4 4 5 5 5 5 5
2 2 2 2 2 3 3 3 3 3 3 2 2 2 2 2 2 2 2 3 5 5 3 3 3 4 3 2 2 2 2 2 3 3 3 3 4 4 4 4 5 5 5 6
2 2 2 3 3 2 2 2 2 3 3 2 3 3 2 2 1 2 3 3 4 4 3 3 4 4 3 2 2 2 2 3 3 3 3 4 4 4 4 4 4 5 5 5
2 2 2 2 1 1 1 1 1 2 2 2 3 3 3 2 2 2 2 3 3 3 3 3 3 3 2 2 2 3 3 3 3 3 3 4 4 4 4 4 5 4 4 5
2 1 1 1 2 2 1 1 1 2 2 2 2 3 3 3 3 3 3 3 3 3 3 3 3 3 3 3 3 3 3 3 3 3 4 4 4 4 4 5 4 4 4 4
Wind_Direction
252 240 204 213 214 212 220 228 235 244 249 258 262 265 260 246 235 226 216 203 202 198 187 176 169 167 163 158 156 158 160 161 162 162 160 160 173 195 234 274 287 288 291 293
243 236 228 236 232 225 228 234 240 249 256 262 271 267 252 246 233 221 214 208 204 197 182 178 174 170 163 162 157 157 160 162 162 165 166 174 192 220 260 280 284 288 292 294
236 228 249 248 236 228 227 228 231 240 247 250 260 259 255 248 234 228 214 206 200 197 189 180 174 167 163 158 150 152 156 159 162 166 176 197 209 234 258 272 282 289 293 296
214 204 232 243 225 228 230 235 233 240 249 250 258 271 274 255 234 227 218 206 195 187 177 166 156 152 146 144 146 147 150 157 160 171 191 217 242 254 263 272 282 290 296 298
207 227 255 260 252 221 220 239 238 236 245 251 257 274 268 259 228 227 223 209 188 174 163 156 153 148 143 140 141 146 152 157 163 183 204 224 245 261 269 274 284 293 298 298
211 226 239 270 334 277 214 239 247 234 226 226 208 242 248 94 131 157 161 159 153 149 146 148 150 146 143 145 150 162 168 172 185 210 226 240 253 266 273 277 284 296 296 295
222 232 253 323 318 203 202 271 19 300 225 227 250 260 324 37 64 88 95 118 133 142 150 153 151 150 150 152 166 173 165 172 203 228 245 258 271 274 278 284 290 293 293 295
217 226 245 10 106 203 316 344 339 334 313 295 301 64 54 358 352 92 95 106 126 140 143 142 146 149 153 160 160 152 158 174 201 261 290 280 275 285 290 290 291 294 296 299
220 233 336 353 280 319 340 337 331 331 334 331 304 277 290 317 78 93 97 108 124 133 128 125 136 150 156 156 141 145 152 159 131 346 314 288 279 285 292 289 288 294 296 299
251 263 286 306 332 342 344 343 351 352 341 327 267 271 309 337 124 120 102 114 127 127 124 119 122 132 147 143 147 155 159 154 47 339 315 303 296 284 283 285 287 290 294 298
250 267 291 297 317 334 347 353 4 2 351 316 185 221 238 207 182 151 120 113 123 125 124 120 114 112 111 123 139 144 149 147 331 309 292 293 294 290 288 287 290 290 291 293
254 267 270 289 318 333 337 338 342 347 348 340 275 192 183 193 171 136 122 116 122 123 122 118 110 95 78 90 123 137 194 284 288 284 287 287 292 299 293 290 301 301 301 301
280 305 299 298 321 334 333 333 346 353 348 341 20 90 123 107 98 99 108 122 134 137 137 133 122 108 81 77 148 219 237 256 271 274 278 282 287 291 301 305 303 305 308 312
288 287 284 296 318 342 353 4 20 23 28 49 69 74 88 95 101 109 117 128 134 134 133 132 127 111 52 45 239 253 259 256 267 268 275 280 285 289 294 300 308 312 312 316
329 315 281 312 346 8 26 38 46 36 33 38 51 68 83 101 108 96 66 65 105 120 121 125 133 62 10 336 284 274 270 274 278 281 281 283 288 292 293 295 299 305 311 316
336 359 23 19 8 19 31 31 35 23 18 23 37 51 65 83 79 59 63 107 129 139 140 146 166 349 360 328 293 283 281 292 297 287 284 286 289 289 291 294 299 303 308 315
338 334 347 352 2 15 19 14 18 15 13 28 35 51 76 88 87 77 64 74 97 107 100 110 329 351 341 309 288 288 292 288 298 296 289 289 289 289 291 293 297 301 305 310
335 329 320 314 341 18 19 23 28 25 18 27 53 78 90 97 97 81 68 81 86 74 46 17 4 349 331 326 310 303 296 293 291 289 290 290 293 293 293 295 298 301 306 308
40 43 41 41 44 56 47 35 31 31 33 50 72 72 70 70 71 72 71 74 76 45 359 359 357 349 326 316 316 302 295 293 292 294 295 297 298 298 299 299 301 303 306 309
42 47 49 45 43 51 50 41 44 46 43 54 69 68 59 48 43 45 46 32 359 330 326 340 337 328 317 301 303 297 289 285 288 294 299 297 298 302 302 302 303 305 307 307
39 44 48 46 43 42 41 40 48 48 39 48 61 56 43 33 27 25 22 8 1 354 330 328 326 313 300 296 292 296 291 288 291 298 302 302 302 304 304 304 304 305 306 308
32 41 43 43 48 41 32 34 43 48 45 44 47 45 38 26 15 10 1 338 336 336 330 322 318 306 307 312 308 307 301 299 301 303 301 301 302 303 303 304 303 304 305 305
33 39 41 43 48 43 40 43 42 44 44 38 34 33 26 360 345 344 346 349 341 337 335 320 316 320 329 337 316 306 304 303 301 298 296 296 297 298 298 300 301 302 304 305
44 44 44 49 63 63 48 35 35 37 35 27 19 7 1 355 349 346 331 329 336 335 332 324 326 334 344 340 321 311 305 300 298 296 295 294 295 295 295 296 299 302 302 304
48 51 55 59 58 48 38 37 40 36 30 21 10 3 355 342 327 330 333 332 334 338 335 334 341 344 343 324 317 310 303 297 295 296 294 294 293 293 293 294 296 299 301 302
49 49 44 42 40 30 24 32 32 16 10 5 0 357 356 353 346 340 342 342 339 341 343 339 335 335 329 323 316 307 300 297 299 300 296 294 292 292 293 295 297 296 297 299
62 60 55 45 37 28 22 21 14 357 349 345 341 342 347 350 352 353 350 345 341 339 335 331 328 325 322 318 313 307 300 296 293 292 293 291 290 290 292 293 296 297 297 297
Height
1422 1421 1423 1424 1426 1428 1428 1424 1424 1417 1416 1414 1417 1419 1421 1423 1424 1425 1426 1427 1428 1429 1430 1431 1432 1434 1436 1437 1439 1441 1442 1443 1445 1446 1446 1447 1448 1448 1448 1448 1447 1446 1445 1444
1423 1421 1421 1422 1421 1422 1422 1422 1421 1419 1417 1414 1417 1419 1421 1421 1422 1423 1424 1425 1426 1427 1428 1429 1430 1432 1433 1435 1437 1438 1439 1441 1442 1442 1443 1444 1444 1445 1445 1444 1443 1442 1441 1439
1420 1422 1421 1418 1414 1414 1415 1415 1417 1415 1413 1414 1416 1417 1418 1420 1421 1421 1422 1423 1424 1425 1426 1427 1428 1430 1431 1433 1434 1436 1437 1438 1439 1440 1440 1441 1441 1441 1440 1440 1439 1437 1436 1434
1421 1423 1421 1408 1410 1410 1410 1410 1412 1412 1412 1413 1415 1416 1417 1418 1419 1420 1420 1421 1422 1423 1424 1425 1427 1428 1429 1431 1432 1434 1435 1435 1436 1437 1437 1437 1437 1437 1436 1436 1435 1433 1431 1429
1420 1415 1407 1407 1410 1411 1410 1408 1410 1411 1411 1413 1414 1414 1415 1416 1417 1417 1418 1419 1420 1421 1422 1423 1425 1426 1428 1429 1430 1431 1432 1433 1434 1434 1434 1434 1434 1433 1432 1431 1430 1429 1427 1424
1418 1413 1407 1405 1409 1410 1411 1408 1409 1409 1410 1411 1412 1411 1413 1415 1415 1415 1416 1417 1417 1419 1420 1422 1424 1425 1426 1427 1428 1429 1431 1431 1431 1432 1431 1431 1430 1430 1429 1428 1426 1424 1422 1420
1415 1412 1406 1411 1411 1410 1410 1407 1410 1410 1410 1411 1411 1411 1413 1413 1413 1414 1414 1415 1416 1417 1419 1420 1422 1423 1424 1425 1426 1428 1428 1429 1429 1429 1429 1428 1427 1426 1425 1424 1422 1420 1417 1415
1414 1413 1412 1413 1412 1412 1411 1411 1411 1410 1411 1411 1411 1411 1412 1412 1413 1412 1413 1413 1414 1416 1417 1418 1420 1421 1422 1423 1424 1425 1426 1426 1426 1426 1425 1425 1424 1423 1421 1420 1418 1415 1413 1411
1412 1413 1413 1413 1413 1413 1412 1411 1410 1410 1410 1410 1410 1410 1411 1411 1411 1412 1412 1412 1413 1414 1415 1416 1418 1419 1420 1421 1422 1422 1423 1423 1423 1423 1422 1422 1421 1419 1418 1416 1414 1412 1409 1407
1414 1412 1413 1413 1412 1412 1411 1410 1410 1409 1410 1410 1410 1410 1410 1410 1411 1411 1411 1412 1412 1413 1414 1415 1416 1417 1418 1419 1419 1420 1420 1421 1420 1420 1420 1419 1418 1417 1415 1413 1411 1408 1406 1404
1412 1413 1412 1412 1411 1411 1411 1410 1409 1409 1409 1409 1409 1409 1410 1410 1410 1410 1410 1411 1411 1412 1412 1413 1414 1416 1417 1417 1418 1418 1418 1418 1418 1418 1417 1416 1415 1413 1412 1410 1408 1406 1403 1401
1409 1411 1411 1411 1411 1410 1410 1409 1409 1408 1407 1407 1408 1408 1408 1408 1409 1409 1409 1410 1410 1411 1411 1412 1413 1414 1415 1416 1416 1416 1416 1416 1416 1415 1414 1413 1412 1410 1408 1406 1404 1402 1399 1397
1411 1411 1411 1410 1409 1409 1409 1408 1407 1407 1406 1406 1406 1406 1407 1407 1407 1408 1408 1409 1409 1410 1411 1411 1412 1413 1414 1414 1414 1414 1414 1414 1413 1413 1412 1410 1409 1407 1404 1402 1400 1398 1395 1393
1410 1410 1409 1409 1408 1408 1407 1406 1406 1405 1405 1405 1405 1405 1405 1406 1406 1407 1407 1408 1408 1409 1410 1410 1411 1411 1412 1412 1412 1412 1412 1411 1411 1410 1409 1407 1406 1404 1402 1399 1396 1393 1392 1389
1409 1409 1408 1407 1407 1406 1406 1405 1405 1405 1404 1404 1404 1404 1404 1405 1405 1405 1406 1406 1407 1407 1408 1409 1409 1409 1410 1410 1410 1410 1409 1409 1408 1407 1406 1404 1403 1401 1399 1396 1394 1391 1388 1385
1408 1407 1407 1406 1406 1405 1405 1405 1404 1404 1404 1404 1403 1403 1403 1404 1404 1404 1404 1405 1405 1406 1406 1407 1407 1408 1408 1408 1408 1407 1407 1406 1405 1404 1403 1401 1400 1398 1396 1394 1391 1388 1385 1383
1407 1406 1406 1405 1405 1405 1405 1405 1404 1404 1404 1403 1403 1402 1402 1402 1403 1403 1403 1403 1404 1404 1405 1405 1405 1405 1405 1405 1405 1405 1404 1403 1402 1401 1400 1398 1397 1395 1393 1391 1388 1386 1383 1381
1406 1406 1406 1405 1405 1405 1404 1404 1404 1403 1403 1403 1402 1402 1402 1402 1402 1402 1402 1402 1403 1403 1403 1403 1404 1403 1403 1403 1402 1402 1401 1400 1399 1398 1397 1395 1394 1392 1390 1388 1386 1383 1381 1378
1406 1405 1405 1405 1405 1404 1404 1403 1403 1403 1403 1402 1402 1402 1401 1401 1401 1401 1401 1401 1401 1401 1401 1401 1401 1401 1401 1400 1400 1399 1398 1397 1396 1395 1394 1393 1391 1389 1387 1385 1383 1380 1378 1376
1406 1405 1405 1404 1404 1404 1403 1403 1403 1403 1402 1402 1402 1401 1401 1400 1400 1400 1400 1399 1399 1399 1399 1399 1399 1399 1398 1398 1397 1396 1395 1394 1393 1392 1391 1390 1388 1386 1384 1382 1380 1378 1375 1373
1406 1405 1405 1404 1404 1403 1403 1403 1402 1402 1402 1401 1401 1401 1400 1400 1399 1399 1398 1398 1398 1398 1397 1397 1397 1396 1396 1395 1395 1394 1393 1392 1391 1389 1388 1387 1385 1383 1382 1379 1377 1375 1373 1371
1405 1405 1404 1404 1403 1403 1403 1402 1402 1402 1401 1401 1400 1400 1399 1399 1398 1398 1397 1397 1396 1395 1395 1395 1394 1394 1393 1393 1392 1391 1390 1389 1388 1387 1385 1384 1382 1381 1379 1377 1375 1373 1371 1368
1405 1405 1404 1404 1403 1403 1403 1402 1402 1401 1401 1400 1400 1399 1399 1398 1397 1396 1396 1395 1394 1394 1393 1393 1392 1392 1391 1390 1390 1389 1388 1386 1385 1384 1382 1381 1380 1378 1376 1374 1372 1370 1368 1366
1405 1404 1404 1403 1403 1403 1402 1402 1401 1401 1400 1400 1399 1399 1398 1397 1396 1396 1395 1394 1393 1392 1391 1391 1390 1390 1389 1388 1387 1386 1385 1384 1382 1381 1380 1379 1377 1376 1374 1372 1370 1368 1366 1364
1405 1404 1404 1403 1403 1402 1402 1401 1401 1400 1400 1399 1399 1398 1397 1396 1395 1394 1393 1392 1392 1391 1390 1389 1389 1388 1387 1386 1385 1384 1383 1381 1380 1379 1378 1376 1375 1373 1371 1370 1368 1366 1364 1362
1405 1404 1404 1403 1403 1402 1402 1401 1400 1400 1399 1399 1398 1397 1397 1396 1394 1393 1392 1391 1390 1390 1389 1388 1387 1386 1385 1384 1383 1382 1381 1379 1378 1377 1375 1374 1372 1371 1369 1367 1365 1363 1362 1360
1404 1404 1404 1403 1403 1402 1402 1401 1400 1400 1399 1398 1397 1396 1396 1394 1393 1392 1391 1390 1389 1388 1387 1386 1385 1384 1383 1382 1381 1380 1378 1377 1376 1374 1373 1371 1370 1368 1367 1365 1363 1361 1360 1358